This is the latest recevied weather packets stored in our database for station/object K5OLV. If no packets are shown the sender has not sent any weather packets the latest 10 day(s).
| Time | Temp. | Humidity | Pressure | Rain* | Wind** | Luminosity | Snow |
|---|---|---|---|---|---|---|---|
| 1777240823 | 24.44° C | 53% | 1010.8 hPa | 0 mm | - | 329 W/m² | - |
| 1777240520 | 25° C | 53% | 1010.6 hPa | 0 mm | - | 340 W/m² | - |
| 1777240217 | 23.89° C | 52% | 1010.6 hPa | 0 mm | - | 347 W/m² | - |
| 1777239915 | 24.44° C | 51% | 1010.8 hPa | 0 mm | - | 363 W/m² | - |
| 1777239613 | 23.89° C | 53% | 1010.6 hPa | 0 mm | - | 377 W/m² | - |
| 1777239309 | 23.89° C | 49% | 1010.6 hPa | 0 mm | - | 389 W/m² | - |
| 1777239006 | 23.89° C | 48% | 1010.5 hPa | 0 mm | - | 415 W/m² | - |
| 1777238703 | 24.44° C | 48% | 1010.6 hPa | 0 mm | - | 432 W/m² | - |
| 1777238399 | 25° C | 49% | 1010.7 hPa | 0 mm | - | 442 W/m² | - |
| 1777238096 | 25° C | 53% | 1010.6 hPa | 0 mm | - | 455 W/m² | - |
| 1777237793 | 25° C | 55% | 1010.6 hPa | 0 mm | - | 439 W/m² | - |
| 1777237489 | 25° C | 56% | 1010.7 hPa | 0 mm | - | 509 W/m² | - |
| 1777237187 | 25° C | 56% | 1010.8 hPa | 0 mm | - | 529 W/m² | - |
| 1777236884 | 24.44° C | 59% | 1010.5 hPa | 0 mm | - | 508 W/m² | - |
| 1777236580 | 23.89° C | 58% | 1010.7 hPa | 0 mm | - | 570 W/m² | - |
| 1777236276 | 24.44° C | 58% | 1010.8 hPa | 0 mm | - | 577 W/m² | - |
| 1777235972 | 25° C | 55% | 1010.6 hPa | 0 mm | - | 544 W/m² | - |
| 1777235668 | 24.44° C | 59% | 1010.7 hPa | 0 mm | - | 580 W/m² | - |
| 1777235366 | 23.89° C | 58% | 1010.7 hPa | 0 mm | - | 587 W/m² | - |
| 1777235061 | 23.89° C | 60% | 1011 hPa | 0 mm | - | 616 W/m² | - |
| 1777234758 | 23.89° C | 62% | 1010.8 hPa | 0 mm | - | 133 W/m² | - |
| 1777234454 | 23.89° C | 59% | 1010.8 hPa | 0 mm | - | 280 W/m² | - |
| 1777234154 | 23.89° C | 65% | 1010.9 hPa | 0 mm | - | 700 W/m² | - |
| 1777233850 | 23.33° C | 66% | 1010.9 hPa | 0 mm | - | 686 W/m² | - |
| 1777233547 | 24.44° C | 63% | 1011 hPa | 0 mm | - | 651 W/m² | - |
* Rain latest hour (hover to see other rain measurements)
** Current wind speed in m/s (hover to see current wind gust speed)